Regional Weather Roundup
Issued by NWS

Home | Current Version | Previous Version | Graphics & Text | Print | Product List | Glossary On
Versions: 1 2 3 4 5 6 7 8 9 10 11 12 13 14 15 16 17 18 19 20 21 22 23 24 25 26 27 28 29 30 31 32 33 34 35 36 37 38 39 40 41 42 43 44 45 46 47 48 49 50
000
ASUS43 KBIS 261802
RWRND

NORTH DAKOTA REGIONAL WEATHER ROUNDUP
NATIONAL WEATHER SERVICE BISMARCK ND
100 PM CDT MON SEP 26 2016

NOTE: "FAIR" INDICATES FEW OR NO CLOUDS BELOW 12,000 FEET WITH NO
SIGNIFICANT WEATHER AND/OR OBSTRUCTIONS TO VISIBILITY.


NDZ001>003-009>011-017-261900-
NORTHWEST NORTH DAKOTA

CITY           SKY/WX    TMP DP  RH WIND       PRES   REMARKS
WILLISTON      SUNNY     66  34  30 NW18      30.21S
6HR MIN TEMP:  38; 6HR MAX TEMP:  66;

MINOT          SUNNY     64  34  32 NW20      30.12S
MINOT AFB      SUNNY     63  35  35 NW22G30   30.10F
$$

NDZ018>021-031>035-040>046-261900-
SOUTHWEST NORTH DAKOTA

CITY           SKY/WX    TMP DP  RH WIND       PRES   REMARKS
BISMARCK       SUNNY     65  35  33 NW16G24   30.15F
6HR MIN TEMP:  40; 6HR MAX TEMP:  66;

DICKINSON      SUNNY     62  33  33 NW16      30.19F
GARRISON         N/A     63  35  35 NW20G30   30.14F
6HR MIN TEMP:  41; 6HR MAX TEMP:  63;

HETTINGER ARPT SUNNY     66  38  35 NW12      30.22F
$$

NDZ004>008-012>016-024-026-027-054-261900-
NORTHEAST NORTH DAKOTA

CITY           SKY/WX    TMP DP  RH WIND       PRES   REMARKS
GRAND FORKS    MOSUNNY   62  40  44 NW24G33   29.93S
GRND FRKS AFB  SUNNY     61  36  39 NW24G35   29.94S
DEVILS LAKE    SUNNY     58  35  42 NW26G35   30.01F
$$

NDZ022-023-025-028>030-036>039-047>053-261900-
SOUTHEAST NORTH DAKOTA

CITY           SKY/WX    TMP DP  RH WIND       PRES   REMARKS
FARGO          SUNNY     65  33  30 NW26G35   29.96F
6HR MIN TEMP:  47; 6HR MAX TEMP:  65;

JAMESTOWN      SUNNY     63  37  38 NW22G38   30.05F
$$





USA.gov is the U.S. government's official web portal to all federal, state and local government web resources and services.